CZ-6A DEB, 54888

Orbit data source: Space-Track

CZ-6A DEB, 54888 is space debris in SSO originally from a launch on Fri, 11 Nov 2022 UTC launched from the Taiyaun Space Center, China (TSC). Debris objects in space refer to the collection of defunct objects orbiting the Earth. Examples of debris include non-operational satellites, rocket bodies, and fragments generated from explosions, collisions, or faulty payload assembly.

Loading next visibility...
Identifier
54888, 2022-151PZ
Orbit
SSO
Country
Flag of CNCN / PRC
Related business
Manufacturer
SAST
Mission
Spacecraft
Bus & Motor
Unknown
Mass
Unknown
Launch date (UTC)
2022-11-11 (3 years ago)
Launch vehicle
Unknown
Launch site
Taiyaun Space Center, China (TSC)
Object type
Payload
Rocket body
Debris
Shape & HBR
Unknown shape, 0.1 m
Radar Cross Section
Small (<0.1 m²)

Expand to show TLE details & history
Last TLE update: 1 day ago

TLE from 1 day ago
0 CZ-6A DEB
1 54888U 22151PZ  25354.18097928  .00013509  00000-0  14053-2 0  9990
2 54888  98.6386  72.1930 0070976  27.5109 332.9834 14.88129057165076
Epoch: 2025-12-20T04:20Z
TLE epoch observation values (Epoch: 2025-12-20T04:20:36.609Z)
Latitude
Longitude
-81.97101°
Altitude
562.708 km
Speed
7.604 km/s
True Right ascension
04h 48m 46s
True Declination
0° 00' 00"
Sunlit
Object was in full shadow at epoch
Visualization orbit readout
Latitude
Unknown
Longitude
Unknown
Altitude
Unknown
Speed
Unknown
Apparent Right ascension
Unknown
Apparent Declination
Unknown
Sunlit
N/A
Visualization observer readout
Local Sidereal Time
13:57:30
Azimuth
Unknown
Elevation
Unknown
Doppler factor
Unknown
Orbital elements
Apogee altitude
650.38 km
Perigee altitude
551.312 km
Semi-major axis
6,978.983 km
Eccentricity
0.0071
Inclination
98.6386°
RAAN
72.193°
Arg. of periapsis
27.5109°
True anomaly
332.61101°
Mean anomaly
332.9834°
Eccentric anomaly
332.7975°
Mean motion
3.72267 °/min
Orbital period
96.7 mins
BSTAR
0.0014053
Loading maneuver chart data...
Computing Atmospheric mass density...
Loading historical data...
Loading historical data...
Loading historical data...
Loading historical data...
Loading historical data...
Loading historical data...
Loading historical data...

Documentation

Showing up to 5 results
|